星链-5756 (STARLINK-5756 )

导读

STARLINK-5756是美国太空探索技术公司星链计划的卫星,于2023年2月12日发射。星链旨在构建全球卫星互联网星座,为全球偏远地区、海洋空域等区域提供宽带网络服务。该卫星加入星座后,进一步扩充星链组网规模,提升服务覆盖范围与网络稳定性,助力低轨卫星互联网系统持续部署。

Basic Information
目录编号:
55598
目录名称:
STARLINK-5756
国际标识:
2023-020AF
轨道中心:
EARTH
卫星名称:
星链-5756
卫星全名:
星链-5756 (STARLINK-5756 )
卫星状态:
在轨 (已飞行1300 天)
发射日期:
2023-02-12 UTC
国别 :
美国 (US)
星等 :
--
Orbit Information
数据来源 国际轨道数据
星历时间: 2026-09-04T07:21:05+0800
13小时前
查看轨道信息
半长轴: 6861.199km
偏心率: 0.0001986
轨道倾角: 43.003°
近地点辐角 270.596°
升交点赤经 67.512°
平近点角 89.466°
近地点: 481.699km
远地点: 484.425km
周期: 94.267分钟
每日圈数: 15.275758
Detailed Information
固有亮度:
5
最大亮度:
2.5
卫星平台:
Starlink v1.5
覆盖范围:
全球
运营商:
太空探索技术公司
运营商所在国:
美国
制造商(研发单位):
太空探索技术公司
制造商所在国:
美国
使用方式:
暂无
Satellite Introduction
星链(Starlink)计划是由太空探索技术公司(SpaceX)提出的一个巨型低轨卫星互联网星座项目,计划在2019年至2024年间在太空搭建由约1.2万颗卫星组成的“星链”网络,其中1584颗将部署在地球上空550千米处的近地轨道,并从2020年开始工作。该卫星仍在工作。
2D Orbit Map
3D Orbit Map
Orbit Altitude Analysis Chart
Orbit Inclination Analysis Chart
Orbit Comprehensive Analysis Chart
View Comprehensive Chart
Conjunction Data List
Event ID Objects TCA Miss Dist (km) Collision Risk Probability Collision Risk Index (CRI) Action
CDM_260904-150905-559806-634021
2026-09-04T
15:09:19+0000
0.273 km
中距离
4.8672E-4 高风险 0.89
CDM_260905-051505-559806-210821
2026-09-05T
05:15:31+0000
0.322 km
远距离
3.847731E-4 高风险 0.87
CDM_260904-223004-069805-559821
AVUM R/B (40698)
2026-09-04T
22:30:38+0000
1.339 km
极远距离
8.512347E-6 低风险 0.54
CDM_260904-133505-559806-634021
2026-09-04T
13:35:09+0000
1.733 km
极远距离
3.260489E-6 低风险 0.45
CDM_260903-154005-559806-579221
2026-09-03T
15:40:43+0000
1.939 km
极远距离
2.089151E-6 低风险 0.41
CDM_260905-064905-559806-210821
2026-09-05T
06:49:40+0000
2.174 km
极远距离
1.839581E-6 低风险 0.4
CDM_260904-164305-559806-634021
2026-09-04T
16:43:28+0000
2.245 km
极远距离
1.694911E-6 低风险 0.4
CDM_260905-034105-559806-210821
2026-09-05T
03:41:22+0000
2.459 km
极远距离
1.436161E-6 低风险 0.38